Weather History for Grand Forks, ND

Change the Weather History Date:

Sunday, August 5, 2012

  Actual Average Record
Temperature  
Mean Temperature 64 °F 69 °F  
Max Temperature 81 °F 82 °F 98 °F (1964)
Min Temperature 47 °F 56 °F 43 °F (1957)
Degree Days  
Heating Degree Days 1 1  
Month to date heating degree days 5 5  
Since 1 June heating degree days 47 136  
Since 1 July heating degree days 5 33  
Cooling Degree Days 0 5  
Month to date cooling degree days 24 25  
Year to date cooling degree days 450 258  
Since 1 June cooling degree days 428 241  
Growing Degree Days 14 (Base 50)    
Moisture  
Dew Point 50 °F    
Average Humidity 63    
Maximum Humidity 93    
Minimum Humidity 33    
Precipitation  
Precipitation 0.00 in 0.08 in 2.45 in (1987)
Month to date precipitation 0.55 0.43  
Year to date precipitation 12.12 12.78  
Snow  
Snow 0.00 in 0.00 in - ()
Month to date snowfall 0.0 0.0  
Since 1 June snowfall 0.0 0.0  
Since 1 July snowfall 0.0 0.0  
Snow Depth 0.00 in    
Sea Level Pressure  
Sea Level Pressure 30.04 in    
Wind  
Wind Speed 9 mph (WSW)    
Max Wind Speed 20 mph    
Max Gust Speed 29 mph    
Visibility 10 miles    
Events      
T = Trace of Precipitation, MM = Missing Value Source: NWS Daily Summary

Daily Weather History Graph

Daily Weather History Graph

Search for Another Location

Airport:

Trip Planner

Search our weather history database for the weather conditions in past years. The results will help you decide how hot, cold, wet, or windy it might be!

Date:

Astronomy

Aug. 05, 2012 Rise Set
Actual Time 6:10 AM CDT 8:57 PM CDT
Civil Twilight 5:35 AM CDT 9:32 PM CDT
Nautical Twilight 4:49 AM CDT 10:18 PM CDT
Astronomical Twilight 3:55 AM CDT 11:11 PM CDT
Moon 10:10 PM CDT (8/5) 10:24 AM CDT (8/5)
Length of Visible Light 15h 57m
Length of Day
14h 46m
Waning Gibbous, 86% of the Moon is Illuminated
Aug 5
Waning Gibbous
Aug 9
Last Quarter
Aug 17
New
Aug 24
First Quarter
Aug 31
Full

Hourly Weather History & Observations

Time (CDT) Temp. Dew Point Humidity Pressure Visibility Wind Dir Wind Speed Gust Speed Precip Events Conditions
12:53 AM 50.0 °F 46.9 °F 89% 30.06 in 10.0 mi West 6.9 mph - N/A   Clear
1:53 AM 48.9 °F 46.0 °F 90% 30.07 in 10.0 mi West 5.8 mph - N/A   Clear
2:53 AM 48.9 °F 46.0 °F 90% 30.07 in 10.0 mi West 5.8 mph - N/A   Clear
3:53 AM 48.9 °F 46.0 °F 90% 30.07 in 10.0 mi WSW 5.8 mph - N/A   Clear
4:53 AM 48.0 °F 46.0 °F 93% 30.07 in 10.0 mi WSW 5.8 mph - N/A   Clear
5:53 AM 46.9 °F 45.0 °F 93% 30.07 in 10.0 mi WSW 3.5 mph - N/A   Clear
6:53 AM 50.0 °F 46.9 °F 89% 30.08 in 10.0 mi SW 3.5 mph - N/A   Clear
7:53 AM 55.9 °F 51.1 °F 84% 30.09 in 10.0 mi WSW 6.9 mph - N/A   Clear
8:53 AM 63.0 °F 53.1 °F 70% 30.09 in 10.0 mi WSW 6.9 mph - N/A   Clear
9:53 AM 69.1 °F 52.0 °F 54% 30.09 in 10.0 mi West 10.4 mph - N/A   Clear
10:53 AM 72.0 °F 48.0 °F 43% 30.10 in 10.0 mi West 11.5 mph - N/A   Partly Cloudy
11:53 AM 73.9 °F 48.9 °F 41% 30.09 in 10.0 mi WSW 12.7 mph 17.3 mph N/A   Partly Cloudy
12:53 PM 75.0 °F 48.0 °F 38% 30.09 in 10.0 mi West 15.0 mph 20.7 mph N/A   Partly Cloudy
1:53 PM 77.0 °F 51.1 °F 40% 30.06 in 10.0 mi WSW 15.0 mph 20.7 mph N/A   Partly Cloudy
2:53 PM 78.1 °F 52.0 °F 40% 30.04 in 10.0 mi West 13.8 mph 18.4 mph N/A   Clear
3:53 PM 80.1 °F 52.0 °F 38% 30.02 in 10.0 mi SW 16.1 mph 21.9 mph N/A   Clear
4:53 PM 80.1 °F 50.0 °F 35% 30.01 in 10.0 mi SW 12.7 mph 24.2 mph N/A   Clear
5:53 PM 81.0 °F 48.0 °F 31% 29.99 in 10.0 mi SW 13.8 mph - N/A   Clear
6:53 PM 80.1 °F 50.0 °F 35% 29.98 in 10.0 mi WSW 12.7 mph - N/A   Clear
7:53 PM 78.1 °F 52.0 °F 40% 29.96 in 10.0 mi SW 5.8 mph - N/A   Clear
8:53 PM 71.1 °F 57.0 °F 61% 29.96 in 10.0 mi SSW 6.9 mph - N/A   Clear
9:53 PM 66.9 °F 57.0 °F 70% 29.97 in 10.0 mi South 6.9 mph - N/A   Clear
10:53 PM 64.0 °F 55.9 °F 75% 29.97 in 10.0 mi South 8.1 mph - N/A   Clear
11:53 PM 64.0 °F 55.9 °F 75% 29.97 in 10.0 mi South 10.4 mph - N/A   Clear